Location: Carrer del Canonge
(41.4901°N, 2.2931°E)
Time: 14:13:12
(UTC+00:00)

ISS - Pass Details

Date: 26 November 2020
Orbit: 418 x 419 km, 51.6° (Epoch: 18 January)

Event Time Altitude Azimuth Distance (km) Brightness Sun altitude
Rises 16:57:02 0° 260° (W) 2,361 2.1 -6.5°
Reaches altitude 10° 16:59:17 10° 271° (W) 1,499 0.3 -6.9°
Maximum altitude 17:02:19 30° 335° (NNW) 773 -2.4 -7.4°
Drops below altitude 10° 17:05:21 10° 40° (NE) 1,502 -1.5 -8.0°
Enters shadow 17:05:41 - 42° (NE) 1,620 -1.3 -8.0°
